JASON-3

Last updated on Tue Jul 01 2025 00:02:30 GMT+0000 (Coordinated Universal Time)

1 41240U 16002A 25181.54634261 -.00000054 00000+0 32795-4 0 9997 2 41240 66.0402 145.1272 0008170 268.3690 91.6393 12.87626856442117
UTC large
Height (km)
Speed (km/s)
/
Latitude / Longitude
Inclination (degrees)
Orbital Period (minutes)
Azimuth
Elevation
Range (km)
Doppler Factor

Next 0 passes for location: London (51.5072 / 0.1276)

Sorry there are no passes over London.